Zurück zum Katalog

COSMOS 839 DEB

AktivUNKNOWN
NORAD 10463·DEBRIS·🇷🇺 Russia

Gestartet Jul 8, 1976 von Plesetsk Cosmodrome

Loading…

Nächste Überflüge (nächste 24 Stunden)

TLE

AktuellSource: Space-Track

Epoche: Sep 14, 2026, 14:26 UTC

1 10463U 76067AG  26257.60144653 -.00000045  00000-0  37839-4 0  9995
2 10463  65.8227 115.9092 0695512 347.6338  38.2671 12.32562676257499

Verfolge COSMOS 839 DEB in Echtzeit mit AllMySat

Download on the App Store